Location: *
(46.1866°S, 178.5290°W)
Time: 18:35:18
(UTC+00:00)

Cosmos 1943 Rocket - Pass Details

Date: 19 May 2021
Orbit: 813 x 842 km, 71.0° (Epoch: 17 June)

Event Time Altitude Azimuth Distance (km) Brightness Sun altitude
Rises 05:33:08 0° 202° (SSW) 3,425 5.4 -11.2°
Reaches altitude 10° 05:35:47 10° 194° (SSW) 2,489 4.6 -11.7°
Maximum altitude 05:41:04 37° 126° (SE) 1,301 2.7 -12.6°
Drops below altitude 10° 05:46:19 10° 59° (ENE) 2,474 4.2 -13.4°
Enters shadow 05:47:54 - 53° (NE) 3,028 4.7 -13.7°
